Hourly Weather Dahab

Today, 27 September, Sunday

Time Temperature Precipitation Wind Pressure Humidity
00:00 +25°C° 0 mm 4 mps 711 mmHg 41%
01:00 +25°C° 0 mm 3 mps 711 mmHg 43%
02:00 +24°C° 0 mm 3 mps 711 mmHg 44%
03:00 +24°C° 0 mm 3 mps 711 mmHg 44%
04:00 +24°C° 0 mm 3 mps 711 mmHg 45%
05:00 +24°C° 0 mm 3 mps 711 mmHg 45%
06:00 +26°C° 0 mm 3 mps 712 mmHg 40%
07:00 +28°C° 0 mm 3 mps 712 mmHg 34%
08:00 +30°C° 0 mm 3 mps 712 mmHg 29%
09:00 +33°C° 0 mm 4 mps 712 mmHg 27%
10:00 +34°C° 0 mm 4 mps 713 mmHg 24%
11:00 +36°C° 0 mm 4 mps 713 mmHg 21%
12:00 +36°C° 0 mm 4 mps 712 mmHg 20%
13:00 +37°C° 0 mm 4 mps 712 mmHg 19%
14:00 +37°C° 0 mm 3 mps 711 mmHg 18%
15:00 +37°C° 0 mm 3 mps 711 mmHg 18%
16:00 +36°C° 0 mm 2 mps 711 mmHg 18%
17:00 +35°C° 0 mm 2 mps 711 mmHg 18%
18:00 +34°C° 0 mm 3 mps 711 mmHg 21%
19:00 +31°C° 0 mm 3 mps 712 mmHg 23%
20:00 +30°C° 0 mm 4 mps 712 mmHg 26%
21:00 +29°C° 0 mm 4 mps 712 mmHg 27%
22:00 +29°C° 0 mm 4 mps 712 mmHg 29%
23:00 +28°C° 0 mm 4 mps 713 mmHg 30%

Tomorrow, 28 September, Monday

Time Temperature Precipitation Wind Pressure Humidity
00:00 +28°C° 0 mm 4 mps 713 mmHg 30%
01:00 +28°C° 0 mm 5 mps 712 mmHg 30%
02:00 +28°C° 0 mm 5 mps 712 mmHg 30%
03:00 +28°C° 0 mm 4 mps 712 mmHg 29%
04:00 +27°C° 0 mm 4 mps 713 mmHg 28%
05:00 +27°C° 0 mm 4 mps 713 mmHg 27%
06:00 +29°C° 0 mm 4 mps 713 mmHg 24%
07:00 +32°C° 0 mm 4 mps 714 mmHg 21%
08:00 +34°C° 0 mm 4 mps 714 mmHg 18%
09:00 +36°C° 0 mm 4 mps 714 mmHg 17%
10:00 +37°C° 0 mm 5 mps 714 mmHg 15%
11:00 +40°C° 0 mm 5 mps 714 mmHg 14%
12:00 +40°C° 0 mm 5 mps 714 mmHg 13%
13:00 +41°C° 0 mm 5 mps 713 mmHg 12%
14:00 +41°C° 0 mm 4 mps 713 mmHg 12%
15:00 +40°C° 0 mm 4 mps 712 mmHg 12%
16:00 +38°C° 0 mm 3 mps 712 mmHg 13%
17:00 +37°C° 0 mm 2 mps 712 mmHg 14%
18:00 +35°C° 0 mm 3 mps 712 mmHg 15%
19:00 +34°C° 0 mm 3 mps 712 mmHg 17%
20:00 +31°C° 0 mm 3 mps 712 mmHg 18%
21:00 +32°C° 0 mm 4 mps 712 mmHg 21%
22:00 +32°C° 0 mm 4 mps 713 mmHg 24%
23:00 +30°C° 0 mm 4 mps 713 mmHg 26%

Day after tomorrow, 29 September, Tuesday

Time Temperature Precipitation Wind Pressure Humidity
00:00 +30°C° 0 mm 4 mps 712 mmHg 27%
01:00 +29°C° 0 mm 4 mps 712 mmHg 28%
02:00 +29°C° 0 mm 4 mps 712 mmHg 28%
03:00 +29°C° 0 mm 4 mps 712 mmHg 28%
04:00 +29°C° 0 mm 4 mps 712 mmHg 28%
05:00 +28°C° 0 mm 4 mps 712 mmHg 27%
06:00 +31°C° 0 mm 3 mps 712 mmHg 24%
07:00 +34°C° 0 mm 3 mps 713 mmHg 20%
08:00 +36°C° 0 mm 3 mps 713 mmHg 17%
09:00 +37°C° 0 mm 3 mps 713 mmHg 16%
10:00 +38°C° 0 mm 4 mps 713 mmHg 15%
11:00 +41°C° 0 mm 4 mps 713 mmHg 13%
12:00 +41°C° 0 mm 4 mps 712 mmHg 14%
13:00 +40°C° 0 mm 3 mps 711 mmHg 14%
14:00 +40°C° 0 mm 3 mps 711 mmHg 14%
15:00 +39°C° 0 mm 2 mps 710 mmHg 15%
16:00 +38°C° 0 mm 2 mps 710 mmHg 16%
17:00 +36°C° 0 mm 1 mps 710 mmHg 17%
18:00 +35°C° 0 mm 2 mps 710 mmHg 19%
19:00 +32°C° 0 mm 2 mps 710 mmHg 20%
20:00 +31°C° 0 mm 3 mps 710 mmHg 22%
21:00 +30°C° 0 mm 3 mps 710 mmHg 22%
22:00 +30°C° 0 mm 3 mps 710 mmHg 23%
23:00 +29°C° 0 mm 3 mps 710 mmHg 23%

30 September, Wednesday

Time Temperature Precipitation Wind Pressure Humidity
00:00 +29°C° 0 mm 3 mps 709 mmHg 24%
01:00 +28°C° 0 mm 3 mps 709 mmHg 24%
02:00 +28°C° 0 mm 3 mps 709 mmHg 24%
03:00 +27°C° 0 mm 3 mps 709 mmHg 24%
04:00 +27°C° 0 mm 3 mps 709 mmHg 24%
05:00 +27°C° 0 mm 3 mps 709 mmHg 25%
06:00 +29°C° 0 mm 3 mps 709 mmHg 24%
07:00 +31°C° 0 mm 3 mps 710 mmHg 23%
08:00 +35°C° 0 mm 3 mps 710 mmHg 22%
09:00 +36°C° 0 mm 4 mps 710 mmHg 20%
10:00 +37°C° 0 mm 4 mps 710 mmHg 18%
11:00 +40°C° 0 mm 4 mps 710 mmHg 16%
12:00 +40°C° 0 mm 5 mps 709 mmHg 16%
13:00 +40°C° 0 mm 5 mps 708 mmHg 16%
14:00 +41°C° 0 mm 5 mps 708 mmHg 16%
15:00 +38°C° 0 mm 4 mps 708 mmHg 17%
16:00 +37°C° 0 mm 3 mps 707 mmHg 18%
17:00 +36°C° 0 mm 2 mps 707 mmHg 19%
18:00 +35°C° 0 mm 3 mps 708 mmHg 22%
19:00 +33°C° 0 mm 4 mps 708 mmHg 24%
20:00 +30°C° 0 mm 5 mps 708 mmHg 27%
21:00 +30°C° 0 mm 4 mps 708 mmHg 28%
22:00 +29°C° 0 mm 4 mps 708 mmHg 30%
23:00 +29°C° 0 mm 4 mps 708 mmHg 32%

1 October, Thursday

Time Temperature Precipitation Wind Pressure Humidity
00:00 +28°C° 0 mm 4 mps 708 mmHg 31%
01:00 +28°C° 0 mm 4 mps 708 mmHg 29%
02:00 +28°C° 0 mm 4 mps 708 mmHg 28%
03:00 +27°C° 0 mm 4 mps 708 mmHg 29%
04:00 +27°C° 0 mm 4 mps 708 mmHg 30%
05:00 +27°C° 0 mm 4 mps 708 mmHg 32%
06:00 +29°C° 0 mm 4 mps 709 mmHg 28%
07:00 +32°C° 0 mm 4 mps 709 mmHg 25%
08:00 +34°C° 0 mm 4 mps 710 mmHg 22%
09:00 +35°C° 0 mm 4 mps 710 mmHg 21%
10:00 +36°C° 0 mm 4 mps 710 mmHg 19%
11:00 +37°C° 0 mm 5 mps 709 mmHg 18%
12:00 +37°C° 0 mm 4 mps 709 mmHg 18%
13:00 +38°C° 0 mm 4 mps 709 mmHg 18%
14:00 +38°C° 0 mm 4 mps 708 mmHg 18%
15:00 +37°C° 0 mm 3 mps 708 mmHg 20%
16:00 +36°C° 0 mm 2 mps 708 mmHg 21%
17:00 +34°C° 0 mm 1 mps 708 mmHg 22%
18:00 +32°C° 0 mm 2 mps 708 mmHg 25%
19:00 +31°C° 0 mm 3 mps 709 mmHg 28%
20:00 +29°C° 0 mm 3 mps 709 mmHg 30%
21:00 +29°C° 0 mm 3 mps 709 mmHg 32%
22:00 +28°C° 0 mm 3 mps 709 mmHg 34%
23:00 +28°C° 0 mm 3 mps 709 mmHg 35%

2 October, Friday

Time Temperature Precipitation Wind Pressure Humidity
00:00 +27°C° 0 mm 3 mps 709 mmHg 38%
01:00 +27°C° 0 mm 3 mps 709 mmHg 40%
02:00 +26°C° 0 mm 4 mps 709 mmHg 42%
03:00 +26°C° 0 mm 3 mps 709 mmHg 44%
04:00 +25°C° 0 mm 3 mps 709 mmHg 45%
05:00 +25°C° 0 mm 3 mps 709 mmHg 47%
06:00 +27°C° 0 mm 3 mps 710 mmHg 41%
07:00 +29°C° 0 mm 3 mps 711 mmHg 36%
08:00 +31°C° 0 mm 3 mps 711 mmHg 30%
09:00 +33°C° 0 mm 4 mps 711 mmHg 29%
10:00 +34°C° 0 mm 4 mps 711 mmHg 28%
11:00 +35°C° 0 mm 4 mps 711 mmHg 26%
12:00 +36°C° 0 mm 4 mps 710 mmHg 25%
13:00 +36°C° 0 mm 4 mps 710 mmHg 24%
14:00 +37°C° 0 mm 4 mps 710 mmHg 23%
15:00 +36°C° 0 mm 3 mps 710 mmHg 23%
16:00 +35°C° 0 mm 2 mps 710 mmHg 24%
17:00 +33°C° 0 mm 1 mps 710 mmHg 24%
18:00 +31°C° 0 mm 1 mps 710 mmHg 26%
19:00 +29°C° 0 mm 1 mps 710 mmHg 28%
20:00 +27°C° 0 mm 2 mps 711 mmHg 29%
21:00 +26°C° 0 mm 1 mps 711 mmHg 30%
22:00 +26°C° 0 mm 1 mps 711 mmHg 31%
23:00 +25°C° 0 mm 1 mps 711 mmHg 31%
Show more